This is the latest recevied weather packets stored in our database for station/object KO4APQ. If no packets are shown the sender has not sent any weather packets the latest 10 day(s).
| Time | Temp. | Humidity | Pressure | Rain* | Wind** | Luminosity | Snow |
|---|---|---|---|---|---|---|---|
| 1777470604 | 18.33° C | 88% | 1014.6 hPa | 0 mm | - | 137 W/m² | - |
| 1777470300 | 18.89° C | 87% | 1014.5 hPa | 0 mm | - | 86 W/m² | - |
| 1777469996 | 18.89° C | 89% | 1014.6 hPa | 0 mm | - | 177 W/m² | - |
| 1777469692 | 18.33° C | 89% | 1014.3 hPa | 0 mm | - | 211 W/m² | - |
| 1777469388 | 18.33° C | 89% | 1014.7 hPa | 0 mm | - | 239 W/m² | - |
| 1777469083 | 18.33° C | 89% | 1014.7 hPa | 0 mm | - | 199 W/m² | - |
| 1777468778 | 17.78° C | 90% | 1014.8 hPa | 0 mm | - | 155 W/m² | - |
| 1777468475 | 17.78° C | 90% | 1014.7 hPa | 0 mm | - | 168 W/m² | - |
| 1777468172 | 17.78° C | 90% | 1014.9 hPa | 0 mm | - | 152 W/m² | - |
| 1777467868 | 17.78° C | 90% | 1014.8 hPa | 0 mm | - | 139 W/m² | - |
| 1777467563 | 17.78° C | 91% | 1014.8 hPa | 0 mm | - | 145 W/m² | - |
| 1777467259 | 17.78° C | 93% | 1014.8 hPa | 0 mm | - | 215 W/m² | - |
| 1777466955 | 17.22° C | 93% | 1014.8 hPa | 0 mm | - | 211 W/m² | - |
| 1777466653 | 17.22° C | 93% | 1015.2 hPa | 0 mm | - | 152 W/m² | - |
| 1777466350 | 17.22° C | 93% | 1015.3 hPa | 0 mm | - | 124 W/m² | - |
| 1777466046 | 17.22° C | 94% | 1015.3 hPa | 0 mm | - | 124 W/m² | - |
| 1777465742 | 17.22° C | 94% | 1015.1 hPa | 0 mm | - | 127 W/m² | - |
| 1777465438 | 17.22° C | 94% | 1015.1 hPa | 0 mm | - | 117 W/m² | - |
| 1777465137 | 17.22° C | 94% | 1014.9 hPa | 0 mm | - | 110 W/m² | - |
| 1777464833 | 17.22° C | 94% | 1015.1 hPa | 0 mm | - | 113 W/m² | - |
| 1777464528 | 17.22° C | 95% | 1015.1 hPa | 0 mm | - | 131 W/m² | - |
| 1777464224 | 16.67° C | 95% | 1015.1 hPa | 0 mm | - | 138 W/m² | - |
| 1777463924 | 16.67° C | 96% | 1015.1 hPa | 0 mm | - | 145 W/m² | - |
| 1777463621 | 16.67° C | 96% | 1014.9 hPa | 0 mm | - | 114 W/m² | - |
| 1777463321 | 16.67° C | 96% | 1014.8 hPa | 0 mm | - | 96 W/m² | - |
* Rain latest hour (hover to see other rain measurements)
** Current wind speed in m/s (hover to see current wind gust speed)